owner,sensor,date,latitude,longitude,vertical_datum,sea_water_temperature,qcFlag 
NERRS,ioos:station:NOAA.NERRS:wkbfrwq:1,2017-10-01T00:45:00Z,30.4162,-87.8228,0.0,27.5,2 
NERRS,ioos:station:NOAA.NERRS:wkbfrwq:1,2017-10-01T01:45:00Z,30.4162,-87.8228,0.0,27.6,2 
NERRS,ioos:station:NOAA.NERRS:wkbfrwq:1,2017-10-01T02:45:00Z,30.4162,-87.8228,0.0,27.6,2 
NERRS,ioos:station:NOAA.NERRS:wkbfrwq:1,2017-10-01T03:45:00Z,30.4162,-87.8228,0.0,27.6,2 
NERRS,ioos:station:NOAA.NERRS:wkbfrwq:1,2017-10-01T04:45:00Z,30.4162,-87.8228,0.0,27.6,2 
NERRS,ioos:station:NOAA.NERRS:wkbfrwq:1,2017-10-01T05:45:00Z,30.4162,-87.8228,0.0,27.6,2 
NERRS,ioos:station:NOAA.NERRS:wkbfrwq:1,2017-10-01T06:45:00Z,30.4162,-87.8228,0.0,27.5,2 
NERRS,ioos:station:NOAA.NERRS:wkbfrwq:1,2017-10-01T07:45:00Z,30.4162,-87.8228,0.0,27.3,2 
NERRS,ioos:station:NOAA.NERRS:wkbfrwq:1,2017-10-01T08:45:00Z,30.4162,-87.8228,0.0,27.4,2 
NERRS,ioos:station:NOAA.NERRS:wkbfrwq:1,2017-10-01T09:45:00Z,30.4162,-87.8228,0.0,27.2,2 
NERRS,ioos:station:NOAA.NERRS:wkbfrwq:1,2017-10-01T10:45:00Z,30.4162,-87.8228,0.0,26.8,2 
NERRS,ioos:station:NOAA.NERRS:wkbfrwq:1,2017-10-01T11:45:00Z,30.4162,-87.8228,0.0,26.6,2 
NERRS,ioos:station:NOAA.NERRS:wkbfrwq:1,2017-10-01T12:45:00Z,30.4162,-87.8228,0.0,26.6,2 
NERRS,ioos:station:NOAA.NERRS:wkbfrwq:1,2017-10-01T13:45:00Z,30.4162,-87.8228,0.0,26.7,2 
NERRS,ioos:station:NOAA.NERRS:wkbfrwq:1,2017-10-01T14:45:00Z,30.4162,-87.8228,0.0,26.8,2 
NERRS,ioos:station:NOAA.NERRS:wkbfrwq:1,2017-10-01T15:45:00Z,30.4162,-87.8228,0.0,26.9,2 
NERRS,ioos:station:NOAA.NERRS:wkbfrwq:1,2017-10-01T16:45:00Z,30.4162,-87.8228,0.0,26.6,2 
NERRS,ioos:station:NOAA.NERRS:wkbfrwq:1,2017-10-01T17:45:00Z,30.4162,-87.8228,0.0,26.6,2 
NERRS,ioos:station:NOAA.NERRS:wkbfrwq:1,2017-10-01T18:45:00Z,30.4162,-87.8228,0.0,26.5,2 
NERRS,ioos:station:NOAA.NERRS:wkbfrwq:1,2017-10-01T19:45:00Z,30.4162,-87.8228,0.0,26.5,2 
NERRS,ioos:station:NOAA.NERRS:wkbfrwq:1,2017-10-01T20:45:00Z,30.4162,-87.8228,0.0,26.7,2 
NERRS,ioos:station:NOAA.NERRS:wkbfrwq:1,2017-10-01T21:45:00Z,30.4162,-87.8228,0.0,26.7,2 
NERRS,ioos:station:NOAA.NERRS:wkbfrwq:1,2017-10-01T22:45:00Z,30.4162,-87.8228,0.0,26.6,2 
NERRS,ioos:station:NOAA.NERRS:wkbfrwq:1,2017-10-01T23:45:00Z,30.4162,-87.8228,0.0,26.7,2 
NERRS,ioos:station:NOAA.NERRS:wkbfrwq:1,2017-10-02T00:45:00Z,30.4162,-87.8228,0.0,26.7,2 
NERRS,ioos:station:NOAA.NERRS:wkbfrwq:1,2017-10-02T01:45:00Z,30.4162,-87.8228,0.0,26.6,2 
NERRS,ioos:station:NOAA.NERRS:wkbfrwq:1,2017-10-02T02:45:00Z,30.4162,-87.8228,0.0,26.5,2 
NERRS,ioos:station:NOAA.NERRS:wkbfrwq:1,2017-10-02T03:45:00Z,30.4162,-87.8228,0.0,25.9,2 
NERRS,ioos:station:NOAA.NERRS:wkbfrwq:1,2017-10-02T04:45:00Z,30.4162,-87.8228,0.0,25.0,2 
NERRS,ioos:station:NOAA.NERRS:wkbfrwq:1,2017-10-02T05:45:00Z,30.4162,-87.8228,0.0,24.8,2 
NERRS,ioos:station:NOAA.NERRS:wkbfrwq:1,2017-10-02T10:45:00Z,30.4162,-87.8228,0.0,23.4,2 
NERRS,ioos:station:NOAA.NERRS:wkbfrwq:1,2017-10-02T11:45:00Z,30.4162,-87.8228,0.0,23.4,2 
NERRS,ioos:station:NOAA.NERRS:wkbfrwq:1,2017-10-02T12:45:00Z,30.4162,-87.8228,0.0,23.5,2 
NERRS,ioos:station:NOAA.NERRS:wkbfrwq:1,2017-10-02T13:45:00Z,30.4162,-87.8228,0.0,23.5,2 
NERRS,ioos:station:NOAA.NERRS:wkbfrwq:1,2017-10-02T14:45:00Z,30.4162,-87.8228,0.0,23.4,2 
NERRS,ioos:station:NOAA.NERRS:wkbfrwq:1,2017-10-02T15:45:00Z,30.4162,-87.8228,0.0,23.4,2 
NERRS,ioos:station:NOAA.NERRS:wkbfrwq:1,2017-10-02T16:45:00Z,30.4162,-87.8228,0.0,23.4,2 
NERRS,ioos:station:NOAA.NERRS:wkbfrwq:1,2017-10-02T17:45:00Z,30.4162,-87.8228,0.0,23.4,2 
NERRS,ioos:station:NOAA.NERRS:wkbfrwq:1,2017-10-02T18:45:00Z,30.4162,-87.8228,0.0,23.5,2 
NERRS,ioos:station:NOAA.NERRS:wkbfrwq:1,2017-10-02T19:45:00Z,30.4162,-87.8228,0.0,23.5,2 
NERRS,ioos:station:NOAA.NERRS:wkbfrwq:1,2017-10-02T20:45:00Z,30.4162,-87.8228,0.0,23.7,2 
NERRS,ioos:station:NOAA.NERRS:wkbfrwq:1,2017-10-02T21:45:00Z,30.4162,-87.8228,0.0,23.6,2 
NERRS,ioos:station:NOAA.NERRS:wkbfrwq:1,2017-10-02T22:45:00Z,30.4162,-87.8228,0.0,23.7,2 
NERRS,ioos:station:NOAA.NERRS:wkbfrwq:1,2017-10-02T23:45:00Z,30.4162,-87.8228,0.0,23.8,2 
NERRS,ioos:station:NOAA.NERRS:wkbfrwq:1,2017-10-03T00:45:00Z,30.4162,-87.8228,0.0,23.8,2 
NERRS,ioos:station:NOAA.NERRS:wkbfrwq:1,2017-10-03T01:45:00Z,30.4162,-87.8228,0.0,23.7,2 
NERRS,ioos:station:NOAA.NERRS:wkbfrwq:1,2017-10-03T02:45:00Z,30.4162,-87.8228,0.0,23.6,2 
NERRS,ioos:station:NOAA.NERRS:wkbfrwq:1,2017-10-03T03:45:00Z,30.4162,-87.8228,0.0,23.6,2 
NERRS,ioos:station:NOAA.NERRS:wkbfrwq:1,2017-10-03T04:45:00Z,30.4162,-87.8228,0.0,23.6,2 
NERRS,ioos:station:NOAA.NERRS:wkbfrwq:1,2017-10-03T05:45:00Z,30.4162,-87.8228,0.0,23.7,2 
NERRS,ioos:station:NOAA.NERRS:wkbfrwq:1,2017-10-03T06:45:00Z,30.4162,-87.8228,0.0,23.7,2 
NERRS,ioos:station:NOAA.NERRS:wkbfrwq:1,2017-10-03T07:45:00Z,30.4162,-87.8228,0.0,23.7,2 
NERRS,ioos:station:NOAA.NERRS:wkbfrwq:1,2017-10-03T08:45:00Z,30.4162,-87.8228,0.0,23.7,2 
NERRS,ioos:station:NOAA.NERRS:wkbfrwq:1,2017-10-03T11:45:00Z,30.4162,-87.8228,0.0,23.7,2 
NERRS,ioos:station:NOAA.NERRS:wkbfrwq:1,2017-10-03T12:45:00Z,30.4162,-87.8228,0.0,23.5,2 
NERRS,ioos:station:NOAA.NERRS:wkbfrwq:1,2017-10-03T13:45:00Z,30.4162,-87.8228,0.0,23.6,2 
NERRS,ioos:station:NOAA.NERRS:wkbfrwq:1,2017-10-03T14:45:00Z,30.4162,-87.8228,0.0,23.5,2 
NERRS,ioos:station:NOAA.NERRS:wkbfrwq:1,2017-10-03T15:45:00Z,30.4162,-87.8228,0.0,23.6,2 
NERRS,ioos:station:NOAA.NERRS:wkbfrwq:1,2017-10-03T16:45:00Z,30.4162,-87.8228,0.0,23.6,2 
NERRS,ioos:station:NOAA.NERRS:wkbfrwq:1,2017-10-03T17:45:00Z,30.4162,-87.8228,0.0,23.5,2 
NERRS,ioos:station:NOAA.NERRS:wkbfrwq:1,2017-10-03T18:45:00Z,30.4162,-87.8228,0.0,23.5,2 
NERRS,ioos:station:NOAA.NERRS:wkbfrwq:1,2017-10-03T19:45:00Z,30.4162,-87.8228,0.0,23.5,2 
NERRS,ioos:station:NOAA.NERRS:wkbfrwq:1,2017-10-03T20:45:00Z,30.4162,-87.8228,0.0,23.5,2 
NERRS,ioos:station:NOAA.NERRS:wkbfrwq:1,2017-10-03T21:45:00Z,30.4162,-87.8228,0.0,23.5,2 
NERRS,ioos:station:NOAA.NERRS:wkbfrwq:1,2017-10-03T22:45:00Z,30.4162,-87.8228,0.0,23.6,2 
NERRS,ioos:station:NOAA.NERRS:wkbfrwq:1,2017-10-03T23:45:00Z,30.4162,-87.8228,0.0,23.6,2 
NERRS,ioos:station:NOAA.NERRS:wkbfrwq:1,2017-10-04T00:45:00Z,30.4162,-87.8228,0.0,23.4,2 
NERRS,ioos:station:NOAA.NERRS:wkbfrwq:1,2017-10-04T01:45:00Z,30.4162,-87.8228,0.0,23.4,2 
NERRS,ioos:station:NOAA.NERRS:wkbfrwq:1,2017-10-04T02:45:00Z,30.4162,-87.8228,0.0,23.4,2 
NERRS,ioos:station:NOAA.NERRS:wkbfrwq:1,2017-10-04T03:45:00Z,30.4162,-87.8228,0.0,23.4,2 
NERRS,ioos:station:NOAA.NERRS:wkbfrwq:1,2017-10-04T04:45:00Z,30.4162,-87.8228,0.0,23.4,2 
NERRS,ioos:station:NOAA.NERRS:wkbfrwq:1,2017-10-04T05:45:00Z,30.4162,-87.8228,0.0,23.4,2 
NERRS,ioos:station:NOAA.NERRS:wkbfrwq:1,2017-10-04T06:45:00Z,30.4162,-87.8228,0.0,23.4,2 
NERRS,ioos:station:NOAA.NERRS:wkbfrwq:1,2017-10-04T07:45:00Z,30.4162,-87.8228,0.0,23.6,2 
NERRS,ioos:station:NOAA.NERRS:wkbfrwq:1,2017-10-04T08:45:00Z,30.4162,-87.8228,0.0,23.6,2 
NERRS,ioos:station:NOAA.NERRS:wkbfrwq:1,2017-10-04T10:45:00Z,30.4162,-87.8228,0.0,23.9,2 
NERRS,ioos:station:NOAA.NERRS:wkbfrwq:1,2017-10-04T11:45:00Z,30.4162,-87.8228,0.0,23.9,2 
NERRS,ioos:station:NOAA.NERRS:wkbfrwq:1,2017-10-04T12:45:00Z,30.4162,-87.8228,0.0,23.6,2 
NERRS,ioos:station:NOAA.NERRS:wkbfrwq:1,2017-10-04T13:45:00Z,30.4162,-87.8228,0.0,23.4,2 
NERRS,ioos:station:NOAA.NERRS:wkbfrwq:1,2017-10-04T14:45:00Z,30.4162,-87.8228,0.0,23.5,2 
NERRS,ioos:station:NOAA.NERRS:wkbfrwq:1,2017-10-04T15:45:00Z,30.4162,-87.8228,0.0,22.9,2 
NERRS,ioos:station:NOAA.NERRS:wkbfrwq:1,2017-10-04T16:45:00Z,30.4162,-87.8228,0.0,22.6,2 
NERRS,ioos:station:NOAA.NERRS:wkbfrwq:1,2017-10-04T17:45:00Z,30.4162,-87.8228,0.0,22.8,2 
NERRS,ioos:station:NOAA.NERRS:wkbfrwq:1,2017-10-04T18:45:00Z,30.4162,-87.8228,0.0,22.9,2 
NERRS,ioos:station:NOAA.NERRS:wkbfrwq:1,2017-10-04T19:45:00Z,30.4162,-87.8228,0.0,22.9,2 
NERRS,ioos:station:NOAA.NERRS:wkbfrwq:1,2017-10-04T20:45:00Z,30.4162,-87.8228,0.0,23.1,2 
NERRS,ioos:station:NOAA.NERRS:wkbfrwq:1,2017-10-04T21:45:00Z,30.4162,-87.8228,0.0,23.2,2 
NERRS,ioos:station:NOAA.NERRS:wkbfrwq:1,2017-10-04T22:45:00Z,30.4162,-87.8228,0.0,23.2,2 
NERRS,ioos:station:NOAA.NERRS:wkbfrwq:1,2017-10-04T23:45:00Z,30.4162,-87.8228,0.0,23.1,2 
NERRS,ioos:station:NOAA.NERRS:wkbfrwq:1,2017-10-05T00:45:00Z,30.4162,-87.8228,0.0,23.2,2 
NERRS,ioos:station:NOAA.NERRS:wkbfrwq:1,2017-10-05T01:45:00Z,30.4162,-87.8228,0.0,23.2,2 
NERRS,ioos:station:NOAA.NERRS:wkbfrwq:1,2017-10-05T02:45:00Z,30.4162,-87.8228,0.0,23.5,2 
NERRS,ioos:station:NOAA.NERRS:wkbfrwq:1,2017-10-05T03:45:00Z,30.4162,-87.8228,0.0,23.8,2 
NERRS,ioos:station:NOAA.NERRS:wkbfrwq:1,2017-10-05T04:45:00Z,30.4162,-87.8228,0.0,23.3,2 
NERRS,ioos:station:NOAA.NERRS:wkbfrwq:1,2017-10-05T05:45:00Z,30.4162,-87.8228,0.0,23.2,2 
NERRS,ioos:station:NOAA.NERRS:wkbfrwq:1,2017-10-05T06:45:00Z,30.4162,-87.8228,0.0,23.3,2 
NERRS,ioos:station:NOAA.NERRS:wkbfrwq:1,2017-10-05T07:45:00Z,30.4162,-87.8228,0.0,23.6,2 
NERRS,ioos:station:NOAA.NERRS:wkbfrwq:1,2017-10-05T08:45:00Z,30.4162,-87.8228,0.0,23.6,2 
NERRS,ioos:station:NOAA.NERRS:wkbfrwq:1,2017-10-05T09:45:00Z,30.4162,-87.8228,0.0,23.3,2 
NERRS,ioos:station:NOAA.NERRS:wkbfrwq:1,2017-10-05T10:45:00Z,30.4162,-87.8228,0.0,23.6,2 
NERRS,ioos:station:NOAA.NERRS:wkbfrwq:1,2017-10-05T11:45:00Z,30.4162,-87.8228,0.0,23.8,2 
NERRS,ioos:station:NOAA.NERRS:wkbfrwq:1,2017-10-05T12:45:00Z,30.4162,-87.8228,0.0,23.8,2 
NERRS,ioos:station:NOAA.NERRS:wkbfrwq:1,2017-10-05T13:45:00Z,30.4162,-87.8228,0.0,23.7,2 
NERRS,ioos:station:NOAA.NERRS:wkbfrwq:1,2017-10-05T14:45:00Z,30.4162,-87.8228,0.0,23.4,2 
NERRS,ioos:station:NOAA.NERRS:wkbfrwq:1,2017-10-05T15:45:00Z,30.4162,-87.8228,0.0,23.3,2 
NERRS,ioos:station:NOAA.NERRS:wkbfrwq:1,2017-10-05T17:45:00Z,30.4162,-87.8228,0.0,23.0,2 
NERRS,ioos:station:NOAA.NERRS:wkbfrwq:1,2017-10-05T18:45:00Z,30.4162,-87.8228,0.0,23.2,2 
NERRS,ioos:station:NOAA.NERRS:wkbfrwq:1,2017-10-05T19:45:00Z,30.4162,-87.8228,0.0,23.2,2 
NERRS,ioos:station:NOAA.NERRS:wkbfrwq:1,2017-10-05T20:45:00Z,30.4162,-87.8228,0.0,23.0,2 
NERRS,ioos:station:NOAA.NERRS:wkbfrwq:1,2017-10-05T21:45:00Z,30.4162,-87.8228,0.0,23.0,2 
NERRS,ioos:station:NOAA.NERRS:wkbfrwq:1,2017-10-05T22:45:00Z,30.4162,-87.8228,0.0,22.9,2 
NERRS,ioos:station:NOAA.NERRS:wkbfrwq:1,2017-10-05T23:45:00Z,30.4162,-87.8228,0.0,22.8,2 
NERRS,ioos:station:NOAA.NERRS:wkbfrwq:1,2017-10-06T00:45:00Z,30.4162,-87.8228,0.0,22.8,2 
NERRS,ioos:station:NOAA.NERRS:wkbfrwq:1,2017-10-06T01:45:00Z,30.4162,-87.8228,0.0,22.8,2 
NERRS,ioos:station:NOAA.NERRS:wkbfrwq:1,2017-10-06T02:45:00Z,30.4162,-87.8228,0.0,22.9,2 
NERRS,ioos:station:NOAA.NERRS:wkbfrwq:1,2017-10-06T03:45:00Z,30.4162,-87.8228,0.0,23.7,2 
NERRS,ioos:station:NOAA.NERRS:wkbfrwq:1,2017-10-06T04:45:00Z,30.4162,-87.8228,0.0,23.5,2 
NERRS,ioos:station:NOAA.NERRS:wkbfrwq:1,2017-10-06T05:45:00Z,30.4162,-87.8228,0.0,23.2,2 
NERRS,ioos:station:NOAA.NERRS:wkbfrwq:1,2017-10-06T06:45:00Z,30.4162,-87.8228,0.0,23.8,2 
NERRS,ioos:station:NOAA.NERRS:wkbfrwq:1,2017-10-06T07:45:00Z,30.4162,-87.8228,0.0,23.5,2 
NERRS,ioos:station:NOAA.NERRS:wkbfrwq:1,2017-10-06T08:45:00Z,30.4162,-87.8228,0.0,23.7,2 
NERRS,ioos:station:NOAA.NERRS:wkbfrwq:1,2017-10-06T09:45:00Z,30.4162,-87.8228,0.0,23.7,2 
NERRS,ioos:station:NOAA.NERRS:wkbfrwq:1,2017-10-06T10:45:00Z,30.4162,-87.8228,0.0,23.3,2 
NERRS,ioos:station:NOAA.NERRS:wkbfrwq:1,2017-10-06T11:45:00Z,30.4162,-87.8228,0.0,23.6,2 
NERRS,ioos:station:NOAA.NERRS:wkbfrwq:1,2017-10-06T12:45:00Z,30.4162,-87.8228,0.0,23.7,2 
NERRS,ioos:station:NOAA.NERRS:wkbfrwq:1,2017-10-06T13:45:00Z,30.4162,-87.8228,0.0,23.6,2 
NERRS,ioos:station:NOAA.NERRS:wkbfrwq:1,2017-10-06T14:45:00Z,30.4162,-87.8228,0.0,23.2,2 
NERRS,ioos:station:NOAA.NERRS:wkbfrwq:1,2017-10-06T15:45:00Z,30.4162,-87.8228,0.0,22.7,2 
NERRS,ioos:station:NOAA.NERRS:wkbfrwq:1,2017-10-06T16:45:00Z,30.4162,-87.8228,0.0,22.9,2 
NERRS,ioos:station:NOAA.NERRS:wkbfrwq:1,2017-10-06T17:45:00Z,30.4162,-87.8228,0.0,23.2,2 
NERRS,ioos:station:NOAA.NERRS:wkbfrwq:1,2017-10-06T18:45:00Z,30.4162,-87.8228,0.0,23.6,2 
NERRS,ioos:station:NOAA.NERRS:wkbfrwq:1,2017-10-06T19:45:00Z,30.4162,-87.8228,0.0,24.0,2 
NERRS,ioos:station:NOAA.NERRS:wkbfrwq:1,2017-10-06T20:45:00Z,30.4162,-87.8228,0.0,24.3,2 
NERRS,ioos:station:NOAA.NERRS:wkbfrwq:1,2017-10-06T21:45:00Z,30.4162,-87.8228,0.0,24.2,2 
NERRS,ioos:station:NOAA.NERRS:wkbfrwq:1,2017-10-06T22:45:00Z,30.4162,-87.8228,0.0,23.7,2 
NERRS,ioos:station:NOAA.NERRS:wkbfrwq:1,2017-10-06T23:45:00Z,30.4162,-87.8228,0.0,23.8,2 
NERRS,ioos:station:NOAA.NERRS:wkbfrwq:1,2017-10-07T00:45:00Z,30.4162,-87.8228,0.0,24.5,2 
NERRS,ioos:station:NOAA.NERRS:wkbfrwq:1,2017-10-07T01:45:00Z,30.4162,-87.8228,0.0,24.5,2 
NERRS,ioos:station:NOAA.NERRS:wkbfrwq:1,2017-10-07T02:45:00Z,30.4162,-87.8228,0.0,24.5,2 
NERRS,ioos:station:NOAA.NERRS:wkbfrwq:1,2017-10-07T03:45:00Z,30.4162,-87.8228,0.0,24.5,2 
NERRS,ioos:station:NOAA.NERRS:wkbfrwq:1,2017-10-07T04:45:00Z,30.4162,-87.8228,0.0,24.5,2 
NERRS,ioos:station:NOAA.NERRS:wkbfrwq:1,2017-10-07T05:45:00Z,30.4162,-87.8228,0.0,24.3,2 
NERRS,ioos:station:NOAA.NERRS:wkbfrwq:1,2017-10-07T06:45:00Z,30.4162,-87.8228,0.0,24.3,2 
NERRS,ioos:station:NOAA.NERRS:wkbfrwq:1,2017-10-07T07:45:00Z,30.4162,-87.8228,0.0,24.4,2 
NERRS,ioos:station:NOAA.NERRS:wkbfrwq:1,2017-10-07T08:45:00Z,30.4162,-87.8228,0.0,24.3,2 
NERRS,ioos:station:NOAA.NERRS:wkbfrwq:1,2017-10-07T09:45:00Z,30.4162,-87.8228,0.0,24.3,2 
NERRS,ioos:station:NOAA.NERRS:wkbfrwq:1,2017-10-07T10:45:00Z,30.4162,-87.8228,0.0,24.0,2 
NERRS,ioos:station:NOAA.NERRS:wkbfrwq:1,2017-10-07T11:45:00Z,30.4162,-87.8228,0.0,23.8,2 
NERRS,ioos:station:NOAA.NERRS:wkbfrwq:1,2017-10-07T12:45:00Z,30.4162,-87.8228,0.0,23.4,2 
NERRS,ioos:station:NOAA.NERRS:wkbfrwq:1,2017-10-07T13:45:00Z,30.4162,-87.8228,0.0,24.0,2 
NERRS,ioos:station:NOAA.NERRS:wkbfrwq:1,2017-10-07T14:45:00Z,30.4162,-87.8228,0.0,24.1,2 
NERRS,ioos:station:NOAA.NERRS:wkbfrwq:1,2017-10-07T15:45:00Z,30.4162,-87.8228,0.0,24.1,2 
NERRS,ioos:station:NOAA.NERRS:wkbfrwq:1,2017-10-07T16:45:00Z,30.4162,-87.8228,0.0,24.1,2 
NERRS,ioos:station:NOAA.NERRS:wkbfrwq:1,2017-10-07T17:45:00Z,30.4162,-87.8228,0.0,24.1,2 
NERRS,ioos:station:NOAA.NERRS:wkbfrwq:1,2017-10-07T18:45:00Z,30.4162,-87.8228,0.0,24.6,2 
NERRS,ioos:station:NOAA.NERRS:wkbfrwq:1,2017-10-07T19:45:00Z,30.4162,-87.8228,0.0,24.8,2 
NERRS,ioos:station:NOAA.NERRS:wkbfrwq:1,2017-10-07T20:45:00Z,30.4162,-87.8228,0.0,24.7,2 
NERRS,ioos:station:NOAA.NERRS:wkbfrwq:1,2017-10-07T21:45:00Z,30.4162,-87.8228,0.0,24.6,2 
NERRS,ioos:station:NOAA.NERRS:wkbfrwq:1,2017-10-08T00:45:00Z,30.4162,-87.8228,0.0,24.4,2 
NERRS,ioos:station:NOAA.NERRS:wkbfrwq:1,2017-10-08T01:45:00Z,30.4162,-87.8228,0.0,24.4,2 
NERRS,ioos:station:NOAA.NERRS:wkbfrwq:1,2017-10-08T02:45:00Z,30.4162,-87.8228,0.0,24.3,2 
NERRS,ioos:station:NOAA.NERRS:wkbfrwq:1,2017-10-08T03:45:00Z,30.4162,-87.8228,0.0,24.2,2 
NERRS,ioos:station:NOAA.NERRS:wkbfrwq:1,2017-10-08T05:45:00Z,30.4162,-87.8228,0.0,23.9,2 
NERRS,ioos:station:NOAA.NERRS:wkbfrwq:1,2017-10-10T16:45:00Z,30.4162,-87.8228,0.0,22.8,2 
 
DISCLAIMER: The Gulf of Mexico Coastal and Ocean Observing (GCOOS) Data Portal aggregates data from the regional data providers for the convenience of all data users. Data published on this website should not be used for navigation or certain other uses as we cannot guarantee data accuracy or availability. The data and delivery services are provided 'as is' without warranty of any kind. Data Source: Gulf of Mexico Coastal Ocean Observing System Data Portal (http://data.gcoos.org/) 
